| time (UTC) | temp F | wind direction | speed MPH | gust MPH | rain 1hr in | rain 24hr in | rain mn in | humidity % | barometer mb |
| 20260506160559 | 70 | 139 | 2.0 | 7.0 | 0.00 | 0.00 | 0.00 | 50 | 1016.0 |
| 20260506154541 | 69 | 0 | 2.0 | 12.0 | 0.00 | 0.00 | 0.00 | 52 | 1016.1 |
| 20260506153045 | 68 | 205 | 2.0 | 9.0 | 0.00 | 0.00 | 0.00 | 53 | 1016.4 |
| 20260506151543 | 67 | 194 | 2.0 | 5.0 | 0.00 | 0.00 | 0.00 | 54 | 1016.4 |
| 20260506150053 | 66 | 229 | 3.0 | 6.0 | 0.00 | 0.00 | 0.00 | 57 | 1016.3 |
| 20260506144559 | 65 | 240 | 2.0 | 6.0 | 0.00 | 0.00 | 0.00 | 58 | 1016.3 |
| 20260506143052 | 64 | 158 | 3.0 | 7.0 | 0.00 | 0.00 | 0.00 | 61 | 1016.0 |
| 20260506141545 | 62 | 208 | 5.0 | 8.0 | 0.00 | 0.00 | 0.00 | 62 | 1016.1 |
| 20260506140058 | 62 | 225 | 2.0 | 10.0 | 0.00 | 0.00 | 0.00 | 65 | 1016.1 |
| 20260506134544 | 61 | 198 | 3.0 | 10.0 | 0.00 | 0.00 | 0.00 | 65 | 1015.9 |
| 20260506133101 | 60 | 204 | 4.0 | 8.0 | 0.00 | 0.00 | 0.00 | 66 | 1015.8 |
| 20260506130133 | 59 | 165 | 2.0 | 7.0 | 0.00 | 0.00 | 0.00 | 68 | 1015.4 |
| 20260506124545 | 59 | 209 | 2.0 | 7.0 | 0.00 | 0.00 | 0.00 | 67 | 1015.3 |
| 20260506123049 | 60 | 113 | 2.0 | 12.0 | 0.00 | 0.00 | 0.00 | 67 | 1015.1 |
| 20260506121552 | 60 | 226 | 4.0 | 10.0 | 0.00 | 0.00 | 0.00 | 67 | 1014.7 |
| 20260506120045 | 60 | 175 | 3.0 | 6.0 | 0.00 | 0.00 | 0.00 | 67 | 1014.7 |
| 20260506114543 | 60 | 249 | 2.0 | 7.0 | 0.00 | 0.00 | 0.00 | 68 | 1014.7 |
| 20260506113052 | 60 | 240 | 1.0 | 7.0 | 0.00 | 0.00 | 0.00 | 67 | 1014.7 |
| 20260506111546 | 60 | 285 | 0.0 | 3.0 | 0.00 | 0.00 | 0.00 | 68 | 1014.6 |
| 20260506110048 | 60 | 0 | 0.0 | 3.0 | 0.00 | 0.00 | 0.00 | 69 | 1014.5 |
| 20260506104554 | 59 | 0 | 0.0 | 1.0 | 0.00 | 0.00 | 0.00 | 71 | 1014.3 |
| 20260506103049 | 60 | 242 | 0.0 | 3.0 | 0.00 | 0.00 | 0.00 | 69 | 1014.1 |
| 20260506101544 | 61 | 213 | 0.0 | 6.0 | 0.00 | 0.00 | 0.00 | 67 | 1014.1 |
| 20260506100104 | 61 | 227 | 1.0 | 5.0 | 0.00 | 0.00 | 0.00 | 66 | 1013.9 |
| 20260506094601 | 62 | 211 | 2.0 | 6.0 | 0.00 | 0.00 | 0.00 | 65 | 1013.9 |
| 20260506093045 | 62 | 210 | 3.0 | 9.0 | 0.00 | 0.00 | 0.00 | 65 | 1013.8 |
| 20260506091543 | 62 | 226 | 3.0 | 9.0 | 0.00 | 0.00 | 0.00 | 64 | 1013.8 |
| 20260506090044 | 63 | 212 | 3.0 | 6.0 | 0.00 | 0.00 | 0.00 | 62 | 1013.5 |
| 20260506084546 | 63 | 193 | 3.0 | 7.0 | 0.00 | 0.00 | 0.00 | 61 | 1013.6 |
| 20260506083053 | 64 | 221 | 2.0 | 6.0 | 0.00 | 0.00 | 0.00 | 59 | 1013.6 |
| 20260506081601 | 65 | 210 | 1.0 | 6.0 | 0.00 | 0.00 | 0.00 | 57 | 1013.4 |
| 20260506073233 | 66 | 230 | 4.0 | 7.0 | 0.00 | 0.00 | 0.00 | 54 | 1013.1 |